AAL1832 KDEN-KDFW

Flight info

Callsign AAL1832
Flight time N/A
Altitude 37000
Route SLEEK2 SLEEK EZEEE MDANO VKTRY2
Aircraft B738/M-SDE2E3FGHIRWXY/LB1

Departure

Time 2026-05-05 00:49
Airport Denver International Airport (KDEN)

Arrival

Time N/A
Airport Dallas Fort Worth International Airport (KDFW)
Time Latitude Longitude Altitude Speed Heading
2026-05-05 00:18 39.85799 -104.67629 5385 ft 0 kts 359°
2026-05-05 00:33 39.85785 -104.67629 5383 ft 4 kts 359°
2026-05-05 00:34 39.85764 -104.67629 5385 ft 4 kts 355°
2026-05-05 00:34 39.85753 -104.67628 5385 ft 2 kts 359°
2026-05-05 00:37 39.85739 -104.67627 5385 ft 1 kts 359°
2026-05-05 00:37 39.85725 -104.67627 5382 ft 0 kts 359°
2026-05-05 00:40 39.85731 -104.67637 5385 ft 3 kts 295°
2026-05-05 00:40 39.85734 -104.67668 5385 ft 3 kts 275°
2026-05-05 00:41 39.85736 -104.67702 5382 ft 4 kts 275°
2026-05-05 00:41 39.85737 -104.67739 5385 ft 6 kts 268°
2026-05-05 00:41 39.85735 -104.67830 5385 ft 12 kts 270°
2026-05-05 00:41 39.85736 -104.67935 5385 ft 11 kts 270°
2026-05-05 00:42 39.85737 -104.68033 5385 ft 10 kts 270°
2026-05-05 00:42 39.85737 -104.68126 5385 ft 10 kts 270°
2026-05-05 00:42 39.85717 -104.68200 5382 ft 8 kts 222°
2026-05-05 00:42 39.85687 -104.68253 5384 ft 7 kts 269°
2026-05-05 00:43 39.85687 -104.68301 5381 ft 5 kts 269°
2026-05-05 00:43 39.85687 -104.68305 5381 ft 0 kts 269°
2026-05-05 00:43 39.85687 -104.68319 5377 ft 4 kts 269°
2026-05-05 00:43 39.85672 -104.68385 5372 ft 12 kts 226°
2026-05-05 00:44 39.85595 -104.68401 5369 ft 11 kts 181°
2026-05-05 00:44 39.85518 -104.68403 5372 ft 11 kts 180°
2026-05-05 00:44 39.85443 -104.68404 5372 ft 11 kts 180°
2026-05-05 00:44 39.85370 -104.68405 5371 ft 10 kts 180°
2026-05-05 00:45 39.85299 -104.68405 5373 ft 10 kts 180°
2026-05-05 00:45 39.85231 -104.68412 5374 ft 10 kts 202°
2026-05-05 00:45 39.85206 -104.68507 5368 ft 14 kts 270°
2026-05-05 00:45 39.85205 -104.68635 5366 ft 15 kts 268°
2026-05-05 00:46 39.85202 -104.68773 5360 ft 16 kts 268°
2026-05-05 00:46 39.85199 -104.68922 5355 ft 17 kts 268°
2026-05-05 00:46 39.85198 -104.69082 5349 ft 18 kts 271°
2026-05-05 00:46 39.85199 -104.69245 5345 ft 18 kts 272°
2026-05-05 00:47 39.85202 -104.69403 5341 ft 17 kts 270°
2026-05-05 00:47 39.85203 -104.69554 5332 ft 16 kts 270°
2026-05-05 00:47 39.85257 -104.69660 5337 ft 16 kts 356°
2026-05-05 00:47 39.85365 -104.69656 5336 ft 15 kts 360°
2026-05-05 00:48 39.85480 -104.69657 5338 ft 27 kts 360°
2026-05-05 00:48 39.85874 -104.69652 5339 ft 86 kts
2026-05-05 00:48 39.86657 -104.69643 5332 ft 137 kts
2026-05-05 00:48 39.87743 -104.69634 5373 ft 175 kts 360°
2026-05-05 00:49 39.88964 -104.69589 6163 ft 168 kts
2026-05-05 00:49 39.90197 -104.69543 6615 ft 188 kts 352°
2026-05-05 00:49 39.91429 -104.70157 7126 ft 191 kts 325°
2026-05-05 00:49 39.92349 -104.71339 7898 ft 186 kts 307°
2026-05-05 00:50 39.92860 -104.72982 8268 ft 207 kts 282°
2026-05-05 00:50 39.92769 -104.74920 8469 ft 227 kts 257°
2026-05-05 00:50 39.92282 -104.76936 8689 ft 241 kts 255°
2026-05-05 00:50 39.91723 -104.78972 9316 ft 238 kts 251°
2026-05-05 00:51 39.91167 -104.81006 9770 ft 238 kts 255°
2026-05-05 00:51 39.90631 -104.83146 9788 ft 255 kts 244°
2026-05-05 00:51 39.89355 -104.84848 9904 ft 277 kts 201°
2026-05-05 00:51 39.87401 -104.85236 9997 ft 296 kts 172°
2026-05-05 00:52 39.85448 -104.84486 10002 ft 291 kts 153°
2026-05-05 00:52 39.83602 -104.83251 10060 ft 307 kts 150°
2026-05-05 00:52 39.81669 -104.81878 10269 ft 327 kts 150°
2026-05-05 00:52 39.79639 -104.80442 10812 ft 334 kts 152°
2026-05-05 00:53 39.77582 -104.78997 11532 ft 335 kts 152°
2026-05-05 00:53 39.75546 -104.77567 12263 ft 338 kts 154°
2026-05-05 00:53 39.73468 -104.76132 13001 ft 339 kts 155°
2026-05-05 00:53 39.71363 -104.74682 13673 ft 345 kts 153°
2026-05-05 00:54 39.69247 -104.73193 14306 ft 348 kts 155°
2026-05-05 00:54 39.67081 -104.71718 14836 ft 354 kts 155°
2026-05-05 00:54 39.64885 -104.70236 15422 ft 359 kts 156°
2026-05-05 00:54 39.62653 -104.68742 16045 ft 363 kts 156°
2026-05-05 00:55 39.60390 -104.67224 16584 ft 368 kts 156°
2026-05-05 00:55 39.58107 -104.65679 17071 ft 373 kts 155°
2026-05-05 00:55 39.55831 -104.64126 17557 ft 376 kts 157°
2026-05-05 00:55 39.53477 -104.62597 18049 ft 380 kts 156°
2026-05-05 00:56 39.51134 -104.61001 18704 ft 381 kts 157°
2026-05-05 00:56 39.48780 -104.59408 19225 ft 385 kts 157°
2026-05-05 00:56 39.46391 -104.57791 19669 ft 390 kts 157°
2026-05-05 00:56 39.43974 -104.56154 20161 ft 393 kts 156°
2026-05-05 00:57 39.41543 -104.54512 20635 ft 396 kts 156°
2026-05-05 00:57 39.39087 -104.52863 21088 ft 400 kts 157°
2026-05-05 00:57 39.36604 -104.51194 21509 ft 404 kts 157°
2026-05-05 00:57 39.34101 -104.49511 21973 ft 407 kts 157°
2026-05-05 00:58 39.31618 -104.47841 22510 ft 409 kts 157°
2026-05-05 00:58 39.29081 -104.46134 22990 ft 413 kts 157°
2026-05-05 00:58 39.26515 -104.44419 23425 ft 417 kts 157°
2026-05-05 00:58 39.23932 -104.42693 23807 ft 421 kts 157°
2026-05-05 00:59 39.21321 -104.40947 24177 ft 424 kts 157°
2026-05-05 00:59 39.18697 -104.39189 24559 ft 427 kts 157°
2026-05-05 00:59 39.16053 -104.37422 24933 ft 430 kts 158°
2026-05-05 00:59 39.13326 -104.35857 25253 ft 427 kts 168°
2026-05-05 01:00 39.10464 -104.34856 25546 ft 428 kts 173°
2026-05-05 01:00 39.07553 -104.33961 25869 ft 431 kts 174°
2026-05-05 01:00 39.04622 -104.33073 26245 ft 433 kts 174°
2026-05-05 01:00 39.01723 -104.32185 26610 ft 436 kts 174°
2026-05-05 01:01 38.98762 -104.31268 26958 ft 439 kts 174°
2026-05-05 01:01 38.95794 -104.30332 27244 ft 442 kts 174°
2026-05-05 01:01 38.92790 -104.29377 27537 ft 446 kts 174°
2026-05-05 01:01 38.89771 -104.28417 27805 ft 450 kts 175°
2026-05-05 01:02 38.86722 -104.27446 28067 ft 454 kts 175°
2026-05-05 01:02 38.83651 -104.26465 28386 ft 456 kts 175°
2026-05-05 01:02 38.80562 -104.25478 28688 ft 458 kts 175°
2026-05-05 01:02 38.77462 -104.24491 28939 ft 461 kts 176°
2026-05-05 01:03 38.74330 -104.23499 29209 ft 463 kts 176°
2026-05-05 01:03 38.71235 -104.22519 29431 ft 467 kts 176°
2026-05-05 01:03 38.68073 -104.21518 29662 ft 470 kts 177°
2026-05-05 01:03 38.64874 -104.20510 29800 ft 475 kts 176°
2026-05-05 01:04 38.61664 -104.19489 30044 ft 477 kts 177°
2026-05-05 01:04 38.55251 -104.17449 30751 ft 472 kts 178°
2026-05-05 01:04 38.52073 -104.16219 30970 ft 486 kts 169°
2026-05-05 01:05 38.48986 -104.14257 31114 ft 506 kts 158°
2026-05-05 01:05 38.46094 -104.11570 31351 ft 520 kts 150°
2026-05-05 01:05 38.43342 -104.08565 31705 ft 520 kts 149°
2026-05-05 01:05 38.40626 -104.05539 32070 ft 517 kts 150°
2026-05-05 01:06 38.37917 -104.02545 32436 ft 513 kts 150°
2026-05-05 01:06 38.35250 -103.99613 32703 ft 515 kts 150°
2026-05-05 01:06 38.32537 -103.96640 33053 ft 512 kts 151°
2026-05-05 01:06 38.29864 -103.93669 33444 ft 511 kts 149°
2026-05-05 01:07 38.27180 -103.90720 33545 ft 502 kts 155°
2026-05-05 01:07 38.24404 -103.87963 33748 ft 510 kts 153°
2026-05-05 01:07 38.21653 -103.85191 34274 ft 502 kts 154°
2026-05-05 01:07 38.18942 -103.82317 34431 ft 512 kts 151°
2026-05-05 01:08 38.13573 -103.76283 34635 ft 514 kts 153°
2026-05-05 01:08 38.10780 -103.73469 34872 ft 517 kts 152°
2026-05-05 01:08 38.08105 -103.70515 35287 ft 512 kts 152°
2026-05-05 01:09 38.05345 -103.67702 35450 ft 509 kts 153°
2026-05-05 01:09 38.02585 -103.64814 35443 ft 515 kts 154°
2026-05-05 01:09 37.99790 -103.61932 35607 ft 523 kts 149°
2026-05-05 01:09 37.97091 -103.58867 35892 ft 519 kts 151°
2026-05-05 01:10 37.91595 -103.52991 36056 ft 517 kts 152°
2026-05-05 01:10 37.88822 -103.50083 36163 ft 519 kts 152°
2026-05-05 01:10 37.86039 -103.47160 36296 ft 519 kts 152°
2026-05-05 01:11 37.80464 -103.41378 36555 ft 520 kts 153°
2026-05-05 01:11 37.74874 -103.35509 36588 ft 523 kts 152°
2026-05-05 01:12 37.69327 -103.29541 36594 ft 524 kts 150°
2026-05-05 01:12 37.63739 -103.23684 36595 ft 520 kts 153°
2026-05-05 01:13 37.58139 -103.17913 36595 ft 522 kts 152°
2026-05-05 01:13 37.52571 -103.12071 36586 ft 521 kts 150°
2026-05-05 01:14 37.47050 -103.06289 36603 ft 520 kts 152°
2026-05-05 01:14 37.41475 -103.00529 36603 ft 518 kts 152°
2026-05-05 01:15 37.35903 -102.94773 36598 ft 518 kts 151°
2026-05-05 01:15 37.30304 -102.89115 36597 ft 520 kts 152°
2026-05-05 01:16 37.24815 -102.83315 36558 ft 518 kts 151°
2026-05-05 01:16 37.19292 -102.77547 36612 ft 516 kts 152°
2026-05-05 01:17 37.13703 -102.71830 36587 ft 520 kts 152°
2026-05-05 01:17 37.08083 -102.66096 36589 ft 523 kts 152°
2026-05-05 01:18 37.02485 -102.60212 36586 ft 524 kts 153°
2026-05-05 01:18 36.96763 -102.54547 36588 ft 526 kts 152°
2026-05-05 01:19 36.91152 -102.48812 36585 ft 523 kts 152°
2026-05-05 01:19 36.85542 -102.42997 36572 ft 526 kts 151°
2026-05-05 01:20 36.79897 -102.37241 36543 ft 523 kts 152°
2026-05-05 01:20 36.74254 -102.31527 36585 ft 522 kts 152°
2026-05-05 01:21 36.68606 -102.25832 36600 ft 524 kts 150°
2026-05-05 01:21 36.62945 -102.20218 36604 ft 523 kts 152°
2026-05-05 01:22 36.57275 -102.14485 36594 ft 524 kts 152°
2026-05-05 01:22 36.51634 -102.08742 36586 ft 524 kts 152°
2026-05-05 01:23 36.45986 -102.03041 36593 ft 523 kts 152°
2026-05-05 01:23 36.40333 -101.97371 36585 ft 522 kts 152°
2026-05-05 01:24 36.34725 -101.91759 36582 ft 521 kts 152°
2026-05-05 01:24 36.29086 -101.86126 36579 ft 520 kts 152°
2026-05-05 01:25 36.23451 -101.80505 36600 ft 520 kts 152°
2026-05-05 01:25 36.17804 -101.74884 36591 ft 520 kts 152°
2026-05-05 01:26 36.12163 -101.69278 36598 ft 520 kts 152°
2026-05-05 01:26 36.06549 -101.63711 36607 ft 521 kts 152°
2026-05-05 01:27 36.00885 -101.58105 36608 ft 523 kts 152°
2026-05-05 01:27 35.95195 -101.52482 36604 ft 524 kts 152°
2026-05-05 01:28 35.89506 -101.46869 36609 ft 524 kts 152°
2026-05-05 01:28 35.83796 -101.41246 36692 ft 525 kts 152°
2026-05-05 01:29 35.78237 -101.35418 36700 ft 535 kts 145°
2026-05-05 01:29 35.72993 -101.28841 36728 ft 540 kts 142°
2026-05-05 01:30 35.67810 -101.22164 36678 ft 539 kts 143°
2026-05-05 01:30 35.62588 -101.15556 36696 ft 538 kts 143°
2026-05-05 01:31 35.57338 -101.09013 36723 ft 537 kts 143°
2026-05-05 01:31 35.52120 -101.02547 36709 ft 536 kts 144°
2026-05-05 01:32 35.46878 -100.96057 36692 ft 534 kts 144°
2026-05-05 01:32 35.41656 -100.89598 36674 ft 533 kts 144°
2026-05-05 01:33 35.36441 -100.83158 36647 ft 532 kts 144°
2026-05-05 01:33 35.31270 -100.76785 36628 ft 531 kts 144°
2026-05-05 01:34 35.26067 -100.70386 36581 ft 530 kts 144°
2026-05-05 01:34 35.20871 -100.64005 36617 ft 528 kts 144°
2026-05-05 01:35 35.15679 -100.57646 36623 ft 528 kts 144°
2026-05-05 01:35 35.10473 -100.51282 36625 ft 530 kts 144°
2026-05-05 01:36 35.05264 -100.44925 36620 ft 531 kts 144°
2026-05-05 01:36 35.00071 -100.38599 36616 ft 531 kts 144°
2026-05-05 01:37 34.94829 -100.32225 36616 ft 532 kts 144°
2026-05-05 01:37 34.89583 -100.25859 36613 ft 533 kts 144°
2026-05-05 01:38 34.84318 -100.19481 36651 ft 534 kts 144°
2026-05-05 01:38 34.79068 -100.13134 36616 ft 536 kts 144°
2026-05-05 01:39 34.73768 -100.06739 36612 ft 537 kts 144°
2026-05-05 01:39 34.68465 -100.00351 36620 ft 538 kts 144°
2026-05-05 01:40 34.63140 -99.93950 36607 ft 539 kts 144°
2026-05-05 01:40 34.57808 -99.87551 36569 ft 539 kts 144°
2026-05-05 01:41 34.52477 -99.81166 36597 ft 539 kts 144°
2026-05-05 01:41 34.47174 -99.74826 36603 ft 538 kts 144°
2026-05-05 01:42 34.44503 -99.71640 36296 ft 543 kts 144°
2026-05-05 01:42 34.41798 -99.68419 35766 ft 544 kts 143°
2026-05-05 01:42 34.39111 -99.65213 35244 ft 543 kts 143°
2026-05-05 01:42 34.36427 -99.62013 34860 ft 538 kts 143°
2026-05-05 01:43 34.33789 -99.58868 34668 ft 529 kts 143°
2026-05-05 01:43 34.31112 -99.55923 34559 ft 505 kts 155°
2026-05-05 01:43 34.28184 -99.53908 34596 ft 467 kts 172°
2026-05-05 01:43 34.25175 -99.52817 34622 ft 442 kts 185°
2026-05-05 01:44 34.22214 -99.52470 34607 ft 425 kts 197°
2026-05-05 01:44 34.19324 -99.52764 34626 ft 409 kts 207°
2026-05-05 01:44 34.16630 -99.53631 34620 ft 393 kts 217°
2026-05-05 01:44 34.14201 -99.55003 34628 ft 379 kts 226°
2026-05-05 01:45 34.12080 -99.56798 34628 ft 367 kts 234°
2026-05-05 01:45 34.10292 -99.58928 34617 ft 355 kts 243°
2026-05-05 01:45 34.08862 -99.61297 34607 ft 344 kts 250°
2026-05-05 01:45 34.07787 -99.63825 34604 ft 336 kts 257°